Regional Weather Roundup
Issued by NWS

Home | Current Version | Previous Version | Text Only | Print | Product List | Glossary On
Versions: 1 2 3 4 5 6 7 8 9 10 11 12 13 14 15 16 17 18 19 20 21 22 23 24 25 26 27 28 29 30 31 32 33 34 35 36 37 38 39 40 41 42 43 44 45 46 47 48 49 50
000
ASUS44 KBMX 290510
RWRAL

ALABAMA REGIONAL WEATHER ROUNDUP
NATIONAL WEATHER SERVICE BIRMINGHAM AL
1200 AM CDT WED JUL 29 2015

NOTE: "FAIR" INDICATES FEW OR NO CLOUDS BELOW 12,000 FEET
WITH NO SIGNIFICANT WEATHER AND/OR OBSTRUCTIONS TO VISIBILITY.

THE REMARK "TC" DENOTES TEMPERATURE IN DEGREES CELSIUS.

ALZ001>011-014-016>018-020-290600-
NORTH ALABAMA

CITY           SKY/WX    TMP DP  RH WIND       PRES   REMARKS
MUSCLE SHOALS  MOCLDY    81  71  71 CALM      30.01F
HUNTSVILLE     MOCLDY    79  74  84 S5        30.00F
DECATUR        MOCLDY    76  74  93 S5        30.01F
HALEYVILLE     FAIR      77  77 100 CALM      30.06F
GADSDEN        PTCLDY    75  70  83 CALM      30.01S
$$

ALZ012-013-022-023-030>036-040>044-290600-
WEST CENTRAL ALABAMA

CITY           SKY/WX    TMP DP  RH WIND       PRES   REMARKS
TUSCALOOSA     PTCLDY    80  77  90 CALM      30.00R
$$

ALZ015-024>027-033>036-040>044-290600-
CENTRAL ALABAMA

CITY           SKY/WX    TMP DP  RH WIND       PRES   REMARKS
BIRMINGHAM     PTCLDY    81  74  79 CALM      30.03S
MONTGOMERY     PTCLDY    79  74  84 CALM      30.00R
SHELBY CO ARPT PTCLDY    77  75  93 CALM      30.02S
MAXWELL AFB    PTCLDY    78  76  94 SW1       29.99R
GREENVILLE     FAIR      77  74  90 CALM      30.00R
$$

ALZ019-021-028-029-037-038-045>048-290600-
EAST CENTRAL ALABAMA

CITY           SKY/WX    TMP DP  RH WIND       PRES   REMARKS
ANNISTON       PTCLDY    75  73  93 SE3       30.02S
ALEXANDER CITY PTCLDY    74  70  85 CALM      30.02S
AUBURN         MOCLDY    79  72  78 CALM      30.03R
$$

ALZ051>064-290600-
SOUTHWEST ALABAMA

CITY           SKY/WX    TMP DP  RH WIND       PRES   REMARKS
MOBILE         CLEAR     79  75  87 W3        30.01S
BROOKLEY FIELD CLEAR     83  73  72 W5        30.01R
EVERGREEN      CLEAR     76  74  93 CALM      30.00R
$$

ALZ049-050-065>069-290600-
SOUTHEAST ALABAMA

CITY           SKY/WX    TMP DP  RH WIND       PRES   REMARKS
DOTHAN         PTCLDY    81  74  79 CALM      30.02R
OZARK          PTCLDY    78  74  88 SW1       29.98S
TROY           MOCLDY    76  74  93 CALM      30.01R
EUFAULA        FAIR      81  74  79 CALM      29.97S
$$



USA.gov is the U.S. government's official web portal to all federal, state and local government web resources and services.